Weather in Peremishlyani

Ukraine / Lviv District     49°40′13″N   24°33′36″E
temp.,
°C
wind,
m/s
gust,
m/s
humid.,
%
clouds,
%
prec.,
mm/h
press.,
hPa
HPBL,
m
14 may, fri
fri1400:00+10sse369439 0.0 1003117
03:00+9s359538 0.0 100478
06:00+10s359299 0.0 1003114
09:00+14s5978100 0.0 1003601
12:00+17ssw676497 0.1 10031346
15:00+17sw7866100 1.5 10041399
18:00+15sw787066 0.6 10051064
21:00+11sw5118362 0.6 1006397
15 may, sat
sat1500:00+9sw489091 0.0 1007190
03:00+10wsw51294100 1.1 1007718
06:00+10w71395100 0.8 1008771
09:00+9w61194100 2.8 1010537
12:00+12w478598 0.3 10111000
15:00+15w466591 0.4 10111317
18:00+16wsw236471 0.0 10101152
21:00+12sse337836 0.0 101022
16 may, sun
sun1600:00+10sse338923 0.0 101025
03:00+9se359297 0.0 101089
06:00+8sse359363 0.0 101093
09:00+14sse58795 0.0 1009390
12:00+19sse566529 0.0 1008825
15:00+20sse5663100 0.2 10061308
18:00+15ssw4787100 4.6 1006230
21:00+13ssw2291100 8.9 100618
17 may, mon
mon1700:00+11wsw2696100 2.8 1008246
03:00+10w4797100 3.4 1009317
06:00+8w379753 0.1 1009261
09:00+12wnw45843 0.1 1010487
12:00+16wnw45634 0.0 10101341
15:00+17w345958 0.1 10091375
18:00+18wnw23587 0.0 10081175
21:00+13s3380100 0.4 100919
18 may, tue
tue1800:00+11ne1193100 0.6 101114
03:00+11s2291100 0.8 101127
06:00+11e2494100 1.1 1010108
09:00+12se259183 1.2 1009349
12:00+16sse577893 0.6 1008866
15:00+17wsw3474100 3.1 1006564
18:00+14wnw4693100 1.7 1005333
21:00+12nw5999100 8.8 1004431